Location: Chorzow
(50.3000°N, 18.9670°E)
Time: 08:30:48
(UTC+02:00)

ISS - Visible Passes

Search period start: 20 September 2024 00:00
Search period end: 30 September 2024 00:00
Orbit: 413 x 423 km, 51.6° (Epoch: 20 September)

Date Brightness Start Highest point End Pass type
(mag) Time Alt. Az. Time Alt. Az. Time Alt. Az.
20 Sep -3.8 20:45:41 10° WNW 20:49:03 73° N 20:49:12 71° NE visible
21 Sep -3.6 19:57:49 10° W 20:01:09 68° N 20:03:06 23° E visible
21 Sep -1.4 21:34:38 10° WNW 21:36:02 22° W 21:36:02 22° W visible
22 Sep -3.5 19:09:52 10° W 19:13:13 68° N 19:16:35 10° E visible
22 Sep -3.7 20:46:44 10° WNW 20:49:53 75° WSW 20:49:53 75° WSW visible
23 Sep -3.8 19:58:47 10° WNW 20:02:09 83° NNE 20:03:44 29° E visible
23 Sep -1.0 21:35:42 10° W 21:36:39 17° W 21:36:39 17° W visible
24 Sep -3.7 19:10:47 10° WNW 19:14:08 72° N 19:17:30 10° E visible
24 Sep -2.9 20:47:37 10° W 20:50:28 43° SW 20:50:28 43° SW visible
25 Sep -3.6 19:59:33 10° WNW 20:02:52 64° SSW 20:04:16 31° SE visible
25 Sep -0.6 21:37:00 10° W 21:37:12 11° WSW 21:37:12 11° WSW visible
26 Sep -3.7 19:11:26 10° WNW 19:14:48 83° SSW 19:18:05 11° ESE visible
26 Sep -1.9 20:48:31 10° W 20:51:00 23° SW 20:51:00 23° SW visible
27 Sep -2.5 20:00:12 10° W 20:03:16 33° SSW 20:04:50 21° SSE visible
28 Sep -3.0 19:11:56 10° WNW 19:15:11 47° SSW 19:18:25 10° SE visible
28 Sep -0.9 20:50:20 10° WSW 20:51:18 11° SW 20:51:37 11° SW visible
29 Sep -1.3 20:01:05 10° W 20:03:18 17° SW 20:05:31 10° S visible
